[[{"header":{"parameterUnit":"m.s-1","parameterCategory":1,"la1":30.2991,"la2":30.254,"lo1":-89.0895,"lo2":-89.0444,"dy":0.0017,"dx":0.0017,"nx":28,"ny":28,"refTime":"2023-04-12T21:00:00:Z","depth":0,"parameterNumber":2,"parameterNumberName":"U-component_of_WINDS"},"data":[0,0,0,0,0,0,0,0,0,0,0,0,0,0,0,0,0,0,0,0,0,0,0,0,0,0,0,0,0,0,0,0,0,0,0,0,0,0,0,0,0,0,0,0,0,0,0,0,0,0,0,0,0,0,0,0,0,0,-4.3125,-4.3128,0,-4.3388,-4.3391,-4.3394,-4.3381,-4.3377,-4.3373,-4.337,-4.3653,-4.3664,-4.3675,0,0,0,0,0,0,0,0,0,0,0,0,0,-4.2626,-4.2635,-4.3125,-4.3128,-4.3131,-4.3387,-4.3391,-4.3395,-4.3382,-4.3377,-4.3372,-4.3368,-4.365,-4.3663,-4.3676,0,0,0,0,0,0,0,0,0,0,0,0,0,-4.2861,-4.2638,-4.3124,-4.3155,-4.3161,-4.3387,-4.3391,-4.3396,-4.3383,-4.3377,-4.3371,-4.3366,-4.3645,-4.3662,-4.3678,-4.3894,0,0,-4.3729,-4.3736,0,0,0,0,0,0,0,0,-4.2848,-4.288,-4.3148,-4.3154,-4.316,-4.3345,-4.3319,-4.3563,-4.3384,-4.3299,-4.337,-4.3363,-4.3557,-4.358,-4.3642,-4.3908,-4.392,-4.373,-4.374,-4.3747,-4.3752,0,0,0,0,0,0,0,-4.2832,-4.2868,-4.3229,-4.3152,-4.3159,-4.3161,-4.3188,-4.3365,-4.3457,-4.3306,-4.3305,-4.3336,-4.3559,-4.3626,-4.3649,-4.3924,-4.373,-4.3744,-4.3755,-4.3761,-4.4383,-4.4389,0,0,0,0,0,0,-4.2806,-4.2855,-4.3221,-4.3237,-4.2986,-4.3174,-4.3205,-4.3292,-4.3455,-4.3474,-4.3341,-4.3334,-4.3601,-4.3629,-4.3659,-4.3924,-4.3747,-4.3763,-4.3772,-4.4376,-4.4384,-4.4391,0,0,0,0,0,0,-4.2796,-4.2839,-4.321,-4.3046,-4.3093,-4.3189,-4.3287,-4.33,-4.3367,-4.3481,-4.3498,-4.3392,-4.3597,-4.3635,-4.3835,-4.3934,-4.377,-4.3785,-4.4369,-4.4379,-4.4388,-4.4456,0,0,0,0,0,0,-4.2781,-4.2835,-4.2915,-4.3048,-4.3102,-4.3379,-4.3293,-4.3309,-4.3394,-4.3389,-4.3533,-4.3552,-4.3596,-4.3811,-4.3852,-4.3954,-4.3798,-4.436,-4.4373,-4.4385,-4.4446,-4.4467,-4.4486,0,0,0,0,0,-4.2764,-4.2927,-4.2919,-4.2964,-4.3203,-4.3384,-4.3416,-4.3458,-4.3402,-4.3486,-4.3559,-4.3548,-4.3916,-4.3831,-4.3878,-4.3986,-4.4354,-4.4369,-4.4384,-4.4437,-4.4463,-4.4485,0,0,0,0,0,0,-4.2809,-4.2945,-4.2938,-4.3148,-4.3254,-4.3381,-4.3488,-4.3485,-4.3613,-4.3603,-4.3655,-4.3688,-4.3889,-4.3957,-4.386,-4.4205,-4.4129,-4.4153,-4.4153,-4.4179,-4.4198,-4.4179,-4.3812,0,0,0,0,0,-4.2842,-4.2973,-4.3087,-4.3262,-4.3314,-4.3392,-4.3472,-4.3496,-4.361,-4.3656,-4.3744,-4.3859,-4.4001,-4.4093,-4.423,-4.4455,-4.4488,-4.4553,-4.4573,-4.4588,-4.461,-4.4737,-4.4768,-4.444,-4.4439,-4.4439,0,0,-4.2915,-4.3005,-4.3086,-4.3273,-4.3358,-4.3497,-4.343,-4.358,-4.3685,-4.3681,-4.3873,-4.3942,-4.4074,-4.4288,-4.4386,-4.4352,-4.4708,-4.4607,-4.4619,-4.4633,-4.4755,-4.4786,-4.4814,-4.4449,-4.4448,-4.4446,0,0,-4.3118,-4.3198,-4.3352,-4.3438,-4.3565,-4.3616,-4.3653,-4.3781,-4.3825,-4.4018,-4.4018,-4.4146,-4.4389,-4.4483,-4.4563,-4.4801,-4.4797,-4.4845,-4.4951,-4.5073,-4.5099,-4.5122,-4.521,-4.5241,-4.4866,-4.4866,-4.4866,0,-4.3193,-4.3398,-4.3434,-4.3584,-4.3668,-4.3665,-4.3825,-4.3907,-4.4076,-4.4136,-4.4092,-4.4397,-4.4486,-4.4722,-4.478,-4.4844,-4.4892,-4.483,-4.5091,-4.5115,-4.5138,-4.5222,-4.5255,-4.4871,-4.487,-4.487,-4.4869,0,-4.3485,-4.3628,-4.3738,-4.3895,-4.3991,-4.4146,-4.4209,-4.4303,-4.4318,-4.4375,-4.4574,-4.468,-4.4838,-4.4896,-4.4914,-4.5137,-4.5111,-4.5079,-4.5004,-4.5173,-4.5254,-4.5286,-4.4878,-4.4876,-4.4875,-4.4874,0,0,-4.3727,-4.3899,-4.3939,-4.4011,-4.4151,-4.4265,-4.442,-4.457,-4.4652,-4.4768,-4.4903,-4.5107,-4.5078,-4.5169,-4.5198,-4.5305,-4.5491,-4.5261,-4.5265,-4.5302,-4.5746,-4.577,-4.5807,-4.5487,-4.5494,-4.5499,-4.5736,0,-4.3946,-4.4216,-4.4253,-4.4495,-4.4629,-4.4628,-4.4764,-4.4868,-4.4925,-4.505,-4.5115,-4.526,-4.5209,-4.5264,-4.537,-4.5445,-4.5581,-4.5429,-4.5619,-4.5625,-4.5587,-4.5849,-4.5875,-4.6094,-4.5767,-4.5772,-4.5776,0,-4.4238,-4.4357,-4.461,-4.4732,-4.479,-4.4911,-4.5053,-4.5171,-4.529,-4.5324,-4.5424,-4.544,-4.5606,-4.5521,-4.5754,-4.5649,-4.5729,-4.5778,-4.5787,-4.5809,-4.5712,-4.588,-4.6164,-4.6198,-4.5826,-4.5822,-4.5818,0,-4.4391,-4.4615,-4.4796,-4.4857,-4.5003,-4.5089,-4.5155,-4.5267,-4.5356,-4.5481,-4.554,-4.5684,-4.5765,-4.5879,-4.5935,-4.5867,-4.6165,-4.6084,-4.6202,-4.6201,-4.6267,-4.6263,-4.657,-4.6314,-4.6314,-4.6313,-4.6312,0,-4.4633,-4.4789,-4.4866,-4.4978,-4.5154,-4.5197,-4.5371,-4.5435,-4.5535,-4.5663,-4.5673,-4.5793,-4.5858,-4.599,-4.6035,-4.6223,-4.6259,-4.6295,-4.6305,-4.6295,-4.6291,-4.635,-4.6338,-4.6322,-4.632,-4.6318,-4.6317,0,-4.4835,-4.4892,-4.509,-4.5211,-4.5245,-4.537,-4.5476,-4.5587,-4.5642,-4.5804,-4.5844,-4.5933,-4.6089,-4.6154,-4.6347,-4.6378,-4.6593,-4.6592,-4.6552,-4.6556,-4.6671,-4.6661,-4.7031,-4.7083,-4.6789,-4.6792,-4.6794,0,-4.4987,-4.5106,-4.5239,-4.5322,-4.5389,-4.5525,-4.5613,-4.5661,-4.5755,-4.5898,-4.5993,-4.6147,-4.6274,-4.6524,-4.6609,-4.6757,-4.6761,-4.688,-4.6783,-4.677,-4.6766,-4.6759,-4.6773,-4.6899,-4.6901,-4.6904,-4.6906,0,-4.5251,-4.5273,-4.5398,-4.5534,-4.5639,-4.5749,-4.5858,-4.5927,-4.5992,-4.6097,-4.6254,-4.6351,-4.6546,-4.6701,-4.6854,-4.6927,-4.693,-4.6935,-4.6971,-4.6963,-4.6936,-4.6955,-4.6603,-4.6927,-4.6925,-4.6923,-4.6922,-4.6921,-4.5435,-4.5541,-4.5651,-4.5791,-4.5876,-4.5977,-4.6086,-4.6154,-4.6283,-4.6442,-4.6463,-4.6632,-4.6751,-4.6955,-4.7034,-4.717,-4.7141,-4.7192,-4.7206,-4.7218,-4.7227,-4.6911,-4.7199,-4.7198,-4.7198,-4.7197,-4.7197,0,-4.5702,-4.5771,-4.5899,-4.6048,-4.6159,-4.6145,-4.6264,-4.636,-4.6506,-4.6613,-4.6736,-4.6918,-4.7068,-4.7163,-4.7316,-4.7407,-4.7412,-4.7446,-4.7441,-4.7459,-4.7243,-4.7198,-4.7439,-4.7439,-4.7439,-4.7439,-4.7439,-4.7439,-4.5854,-4.6033,-4.6069,-4.6292,-4.6362,-4.6523,-4.6593,-4.6688,-4.6773,-4.6974,-4.7097,-4.7156,-4.7261,-4.7421,-4.7559,-4.7584,-4.7642,-4.7678,-4.7701,-4.7499,-4.7474,-4.745,-4.7408,-4.7689,-4.7689,-4.7906,-4.7908,-4.791]},{"header":{"parameterUnit":"m.s-1","parameterCategory":1,"la1":30.2991,"la2":30.254,"lo1":-89.0895,"lo2":-89.0444,"dy":0.0017,"dx":0.0017,"nx":28,"ny":28,"refTime":"2023-04-12T21:00:00:Z","depth":0,"parameterNumber":3,"parameterNumberName":"V-component_of_WINDS"},"data":[0,0,0,0,0,0,0,0,0,0,0,0,0,0,0,0,0,0,0,0,0,0,0,0,0,0,0,0,0,0,0,0,0,0,0,0,0,0,0,0,0,0,0,0,0,0,0,0,0,0,0,0,0,0,0,0,0,0,-6.3285,-6.3285,0,-6.3257,-6.3257,-6.3257,-6.3106,-6.3102,-6.3099,-6.3095,-6.3068,-6.307,-6.3073,0,0,0,0,0,0,0,0,0,0,0,0,0,-6.3209,-6.3211,-6.3285,-6.3285,-6.3284,-6.3257,-6.3257,-6.3256,-6.3107,-6.3102,-6.3098,-6.3094,-6.3067,-6.307,-6.3073,0,0,0,0,0,0,0,0,0,0,0,0,0,-6.3218,-6.3212,-6.3285,-6.3206,-6.3199,-6.3257,-6.3257,-6.3256,-6.3108,-6.3102,-6.3097,-6.3092,-6.3066,-6.307,-6.3073,-6.3206,0,0,-6.3085,-6.3087,0,0,0,0,0,0,0,0,-6.3218,-6.3221,-6.3218,-6.3212,-6.3204,-6.3179,-6.322,-6.3239,-6.3109,-6.3142,-6.3095,-6.3089,-6.3109,-6.3109,-6.3116,-6.3204,-6.3203,-6.3086,-6.3088,-6.309,-6.3091,0,0,0,0,0,0,0,-6.3217,-6.3221,-6.3274,-6.3218,-6.321,-6.3173,-6.3168,-6.3223,-6.3156,-6.3139,-6.3128,-6.3127,-6.3104,-6.3113,-6.3114,-6.3203,-6.3086,-6.3089,-6.3092,-6.3093,-6.34,-6.3405,0,0,0,0,0,0,-6.3228,-6.3222,-6.3275,-6.3273,-6.3198,-6.3178,-6.3173,-6.3193,-6.3155,-6.3144,-6.3131,-6.312,-6.3108,-6.311,-6.3113,-6.3266,-6.309,-6.3094,-6.3096,-6.3394,-6.3401,-6.3407,0,0,0,0,0,0,-6.3227,-6.3234,-6.3276,-6.3244,-6.3247,-6.3185,-6.3209,-6.3195,-6.3203,-6.315,-6.3137,-6.3152,-6.3104,-6.3107,-6.3184,-6.3263,-6.3095,-6.3099,-6.3387,-6.3396,-6.3404,-6.3574,0,0,0,0,0,0,-6.3225,-6.3234,-6.3284,-6.3247,-6.3249,-6.3348,-6.3214,-6.3198,-6.321,-6.3195,-6.3166,-6.3156,-6.31,-6.3179,-6.3188,-6.3265,-6.3102,-6.338,-6.3391,-6.3401,-6.3561,-6.3587,-6.3609,0,0,0,0,0,-6.3223,-6.3332,-6.3287,-6.3294,-6.331,-6.3353,-6.3354,-6.3288,-6.3217,-6.3266,-6.3232,-6.3157,-6.3253,-6.3188,-6.3197,-6.3277,-6.3374,-6.3388,-6.34,-6.355,-6.3582,-6.3609,0,0,0,0,0,0,-6.338,-6.3326,-6.3275,-6.3376,-6.337,-6.3327,-6.3387,-6.3324,-6.3338,-6.3323,-6.3241,-6.3236,-6.3325,-6.3308,-6.3237,-6.3403,-6.3301,-6.3316,-6.3411,-6.3441,-6.3465,-6.3468,-6.3105,0,0,0,0,0,-6.3426,-6.3466,-6.3416,-6.351,-6.351,-6.345,-6.3466,-6.3415,-6.3406,-6.3403,-6.3374,-6.3369,-6.3397,-6.3418,-6.3441,-6.3557,-6.3549,-6.3617,-6.3641,-6.3661,-6.3676,-6.3737,-6.3767,-6.345,-6.345,-6.345,0,0,-6.3523,-6.3498,-6.3528,-6.3541,-6.353,-6.3574,-6.3448,-6.3499,-6.353,-6.3411,-6.3482,-6.3461,-6.3449,-6.3546,-6.3588,-6.3535,-6.3762,-6.3678,-6.3695,-6.3698,-6.3754,-6.3784,-6.3811,-6.3459,-6.3457,-6.3456,0,0,-6.372,-6.3705,-6.3782,-6.3774,-6.376,-6.372,-6.3739,-6.3706,-6.3687,-6.3757,-6.3669,-6.3705,-6.3756,-6.3752,-6.3756,-6.3954,-6.3885,-6.3964,-6.4092,-6.4152,-6.4177,-6.4199,-6.4271,-6.4298,-6.3978,-6.3979,-6.3979,0,-6.3842,-6.3903,-6.383,-6.3886,-6.3895,-6.3789,-6.3867,-6.3863,-6.3858,-6.3867,-6.3808,-6.3871,-6.3855,-6.395,-6.3999,-6.4006,-6.4025,-6.3967,-6.418,-6.4201,-6.422,-6.4288,-6.4315,-6.3988,-6.3987,-6.3986,-6.3985,0,-6.4053,-6.4097,-6.4161,-6.4159,-6.4175,-6.4242,-6.418,-6.4205,-6.4154,-6.412,-6.4193,-6.4171,-6.4189,-6.4207,-6.4157,-6.4297,-6.4265,-6.4194,-6.4089,-6.4261,-6.4323,-6.4349,-6.4002,-6.3999,-6.3996,-6.3993,0,0,-6.4349,-6.4306,-6.4331,-6.433,-6.4307,-6.434,-6.4402,-6.442,-6.4444,-6.4444,-6.4495,-6.4541,-6.4476,-6.4482,-6.443,-6.4484,-6.4643,-6.4406,-6.4405,-6.4452,-6.4797,-6.4851,-6.4883,-6.4597,-6.4602,-6.4606,-6.4798,0,-6.4539,-6.4644,-6.458,-6.4695,-6.4735,-6.4636,-6.469,-6.4683,-6.4653,-6.4683,-6.465,-6.4685,-6.4596,-6.4598,-6.4647,-6.4614,-6.4712,-6.4599,-6.4646,-6.4648,-6.4653,-6.4915,-6.4972,-6.5155,-6.4822,-6.4826,-6.4829,0,-6.4775,-6.4786,-6.4905,-6.4876,-6.489,-6.4941,-6.4952,-6.4982,-6.4972,-6.4946,-6.4954,-6.4889,-6.4949,-6.4846,-6.4929,-6.4854,-6.4869,-6.4856,-6.4861,-6.4864,-6.475,-6.4926,-6.5211,-6.524,-6.4866,-6.4863,-6.4861,0,-6.498,-6.5025,-6.5102,-6.5103,-6.5071,-6.5109,-6.5097,-6.5081,-6.5097,-6.5107,-6.5116,-6.5133,-6.5143,-6.5158,-6.5101,-6.5031,-6.5192,-6.5083,-6.5174,-6.5176,-6.5213,-6.5212,-6.5507,-6.5221,-6.5221,-6.522,-6.522,0,-6.52,-6.5277,-6.5194,-6.5242,-6.5326,-6.5252,-6.5337,-6.5315,-6.5302,-6.5344,-6.5258,-6.53,-6.5221,-6.5255,-6.521,-6.5286,-6.5291,-6.5273,-6.5261,-6.5282,-6.5284,-6.5291,-6.5278,-6.5227,-6.5226,-6.5224,-6.5223,0,-6.5444,-6.5391,-6.5469,-6.5432,-6.5425,-6.5489,-6.5457,-6.55,-6.5464,-6.5519,-6.5527,-6.5472,-6.5508,-6.5452,-6.548,-6.545,-6.5557,-6.5524,-6.5561,-6.5551,-6.5646,-6.5638,-6.5956,-6.5995,-6.5684,-6.5687,-6.569,0,-6.5588,-6.5645,-6.5615,-6.5637,-6.563,-6.5667,-6.5682,-6.5612,-6.5632,-6.5625,-6.567,-6.5698,-6.5716,-6.5778,-6.5741,-6.5763,-6.5731,-6.5841,-6.5734,-6.5754,-6.5734,-6.5732,-6.5738,-6.5863,-6.5867,-6.587,-6.5873,0,-6.585,-6.5822,-6.5847,-6.5864,-6.5884,-6.5894,-6.5898,-6.5921,-6.5847,-6.5873,-6.5909,-6.5924,-6.5953,-6.5983,-6.5996,-6.5984,-6.5918,-6.5907,-6.5929,-6.5952,-6.5971,-6.5964,-6.5622,-6.59,-6.5897,-6.5895,-6.5894,-6.5893,-6.6049,-6.6096,-6.6083,-6.6114,-6.6109,-6.6115,-6.6154,-6.6124,-6.6152,-6.6171,-6.6128,-6.6174,-6.6163,-6.6174,-6.617,-6.6205,-6.6157,-6.6189,-6.6197,-6.6207,-6.6222,-6.5965,-6.6207,-6.6206,-6.6205,-6.6205,-6.6204,0,-6.6308,-6.6295,-6.6324,-6.6333,-6.6358,-6.6292,-6.6293,-6.6318,-6.636,-6.6356,-6.6376,-6.6418,-6.6446,-6.6412,-6.6435,-6.647,-6.644,-6.6478,-6.6476,-6.6475,-6.6263,-6.6242,-6.6502,-6.6502,-6.6502,-6.6502,-6.6502,-6.6502,-6.6446,-6.6522,-6.6493,-6.6566,-6.6551,-6.6596,-6.6603,-6.6608,-6.6604,-6.6655,-6.6678,-6.6655,-6.6639,-6.666,-6.6684,-6.6673,-6.6686,-6.6736,-6.6715,-6.6518,-6.6489,-6.6461,-6.6441,-6.6739,-6.6739,-6.6923,-6.6925,-6.6926]}]]